TimeEDT,TemperatureF,Dew PointF,Humidity,Sea Level PressureIn,VisibilityMPH,Wind Direction,Wind SpeedMPH,Gust SpeedMPH,PrecipitationIn,Events,Conditions,WindDirDegrees,DateUTC
12:52 AM,54.0,39.9,59,30.21,10.0,SSE,12.7,-,N/A,,Mostly Cloudy,160,2013-04-07 04:52:00
1:52 AM,53.1,39.9,61,30.21,10.0,SSE,10.4,-,N/A,,Mostly Cloudy,160,2013-04-07 05:52:00
2:52 AM,50.0,36.0,59,30.21,10.0,SSE,6.9,-,N/A,,Mostly Cloudy,160,2013-04-07 06:52:00
3:52 AM,48.9,37.0,64,30.19,10.0,SSE,8.1,-,N/A,,Scattered Clouds,150,2013-04-07 07:52:00
4:52 AM,46.9,37.0,68,30.20,10.0,SE,6.9,-,N/A,,Scattered Clouds,140,2013-04-07 08:52:00
5:52 AM,42.1,37.0,82,30.22,10.0,Calm,Calm,-,N/A,,Scattered Clouds,0,2013-04-07 09:52:00
6:52 AM,45.0,39.0,80,30.24,10.0,Calm,Calm,-,N/A,,Overcast,0,2013-04-07 10:52:00
7:52 AM,48.0,41.0,77,30.25,10.0,South,3.5,-,N/A,,Overcast,170,2013-04-07 11:52:00
8:34 AM,48.2,44.6,87,30.27,10.0,SSE,6.9,-,N/A,,Overcast,150,2013-04-07 12:34:00
8:52 AM,48.9,44.1,83,30.27,10.0,SSE,9.2,-,N/A,,Mostly Cloudy,150,2013-04-07 12:52:00
9:52 AM,51.1,45.0,80,30.27,10.0,South,5.8,-,N/A,,Mostly Cloudy,170,2013-04-07 13:52:00
10:06 AM,51.8,46.4,82,30.27,10.0,SSW,6.9,-,N/A,,Mostly Cloudy,210,2013-04-07 14:06:00
10:52 AM,55.9,46.0,69,30.26,10.0,SSW,4.6,-,N/A,,Mostly Cloudy,200,2013-04-07 14:52:00
11:52 AM,60.8,48.2,63,30.26,10.0,SW,9.2,-,N/A,,Mostly Cloudy,220,2013-04-07 15:52:00
12:52 PM,64.0,43.0,46,30.23,10.0,SW,11.5,18.4,N/A,,Mostly Cloudy,220,2013-04-07 16:52:00
1:52 PM,68.0,44.1,42,30.19,10.0,SW,10.4,-,N/A,,Mostly Cloudy,220,2013-04-07 17:52:00
2:52 PM,70.0,43.0,38,30.17,10.0,South,10.4,-,N/A,,Overcast,190,2013-04-07 18:52:00
3:52 PM,69.1,45.0,42,30.14,10.0,SSW,11.5,18.4,N/A,,Overcast,200,2013-04-07 19:52:00
4:52 PM,71.1,45.0,39,30.12,10.0,SSW,17.3,23.0,N/A,,Overcast,200,2013-04-07 20:52:00
5:52 PM,71.1,46.9,42,30.12,10.0,SSW,10.4,-,N/A,,Overcast,200,2013-04-07 21:52:00
6:52 PM,68.0,46.9,47,30.11,10.0,SSW,8.1,-,N/A,,Overcast,200,2013-04-07 22:52:00
7:52 PM,64.9,48.0,54,30.11,10.0,South,4.6,-,N/A,,Mostly Cloudy,180,2013-04-07 23:52:00
8:52 PM,61.0,48.0,62,30.12,10.0,South,5.8,-,N/A,,Mostly Cloudy,180,2013-04-08 00:52:00
9:52 PM,61.0,48.0,62,30.14,10.0,Calm,Calm,-,N/A,,Scattered Clouds,0,2013-04-08 01:52:00
10:52 PM,59.0,48.9,69,30.12,10.0,South,5.8,-,N/A,,Partly Cloudy,180,2013-04-08 02:52:00
11:52 PM,59.0,48.9,69,30.12,10.0,SE,4.6,-,N/A,,Partly Cloudy,140,2013-04-08 03:52:00